This is the latest recevied weather packets stored in our database for station/object KM8V-8. If no packets are shown the sender has not sent any weather packets the latest 10 day(s).
| Time | Temp. | Humidity | Pressure | Rain* | Wind** | Luminosity | Snow |
|---|---|---|---|---|---|---|---|
| 1777503922 | 8.33° C | 100% | 1010.6 hPa | 0 mm | - | 34 W/m² | - |
| 1777503624 | 8.33° C | 100% | 1010.6 hPa | 0 mm | - | 27 W/m² | - |
| 1777503323 | 8.33° C | 100% | 1010.7 hPa | 0 mm | - | 29 W/m² | - |
| 1777503023 | 8.33° C | 100% | 1010.6 hPa | 0 mm | - | 39 W/m² | - |
| 1777502723 | 8.33° C | 100% | 1010.6 hPa | 0 mm | - | 37 W/m² | - |
| 1777502424 | 8.33° C | 100% | 1010.6 hPa | 0 mm | - | 39 W/m² | - |
| 1777502124 | 8.33° C | 100% | 1010.6 hPa | 0 mm | - | 40 W/m² | - |
| 1777501824 | 8.33° C | 100% | 1010.5 hPa | 0 mm | - | 45 W/m² | - |
| 1777501524 | 8.33° C | 100% | 1010.5 hPa | 0 mm | - | 33 W/m² | - |
| 1777501224 | 8.33° C | 100% | 1010.4 hPa | 0 mm | - | 43 W/m² | - |
| 1777500924 | 8.33° C | 100% | 1010.4 hPa | 0 mm | - | 99 W/m² | - |
| 1777500618 | 8.33° C | 100% | 1010.3 hPa | 0 mm | - | 83 W/m² | - |
| 1777500324 | 8.33° C | 100% | 1010.2 hPa | 0 mm | - | 108 W/m² | - |
| 1777500024 | 8.33° C | 100% | 1010.1 hPa | 0 mm | - | 109 W/m² | - |
| 1777499718 | 8.33° C | 100% | 1010.2 hPa | 0 mm | - | 76 W/m² | - |
| 1777499424 | 8.33° C | 100% | 1010.3 hPa | 0 mm | - | 64 W/m² | - |
| 1777499124 | 8.33° C | 100% | 1010.3 hPa | 0 mm | - | 72 W/m² | - |
| 1777498825 | 8.33° C | 100% | 1010.1 hPa | 0 mm | - | 78 W/m² | - |
| 1777498525 | 8.33° C | 100% | 1010 hPa | 0 mm | - | 71 W/m² | - |
| 1777498224 | 8.33° C | 100% | 1010 hPa | 0 mm | - | 69 W/m² | - |
| 1777497919 | 8.33° C | 100% | 1010 hPa | 0 mm | - | 66 W/m² | - |
| 1777497625 | 8.33° C | 100% | 1009.9 hPa | 0 mm | - | 58 W/m² | - |
| 1777497325 | 8.33° C | 100% | 1009.9 hPa | 0 mm | - | 50 W/m² | - |
| 1777497025 | 8.33° C | 100% | 1009.8 hPa | 0 mm | - | 61 W/m² | - |
| 1777496725 | 8.33° C | 100% | 1009.7 hPa | 0 mm | - | 65 W/m² | - |
* Rain latest hour (hover to see other rain measurements)
** Current wind speed in m/s (hover to see current wind gust speed)